Погода в Селижарове

Россия / Тверская область     56°51′04″N   33°27′20″E
темп.,
°C
ветер,
м/с
пор.,
м/с
влажн.,
%
обл.,
%
осадки,
мм/ч
давл.,
гПа
погр.,
м
20 июня, вс
вс2000:00+17ююз26790 0.0 102294
03:00+15юз22901 0.0 102312
06:00+18ююз13841 0.0 102299
09:00+24юз24615 0.0 1022692
12:00+28юз34475 0.0 10211646
15:00+30юз34400 0.0 10202115
18:00+29юз23420 0.0 10192142
21:00+22ююв377915 0.0 1019182
21 июня, пн
пн2100:00+22ю3975100 0.0 1019253
03:00+21ююз268092 0.1 1020159
06:00+20юз2390100 0.2 1020112
09:00+25ю226469 0.2 1020504
12:00+29ююв344798 0.0 10201481
15:00+30юв444363 0.0 10191792
18:00+28ююв344912 0.0 10181238
21:00+21ююв26756 0.0 1019116
22 июня, вт
вт2200:00+18ююв228127 0.0 102021
03:00+17ююв24905 0.0 102072
06:00+19юв258725 0.0 1020142
09:00+25ююв356132 0.0 1019624
12:00+29ююв464139 0.0 10191353
15:00+31ююв463442 0.0 10181872
18:00+30ююв46455 0.0 10181309
21:00+23юв310765 0.0 1018227
23 июня, ср
ср2300:00+21ю312840 0.0 1019295
03:00+19ю25950 0.0 102097
06:00+21ю26870 0.0 1019161
09:00+27ю36615 0.0 1019701
12:00+31ю47401 0.0 10191678
15:00+33ююз46320 0.0 10182717
18:00+32ююз35380 0.0 10182397
21:00+24ююв38755 0.0 1018153
24 июня, чт
чт2400:00+22ююз22755 0.0 101930
03:00+20ююз23800 0.0 101955
06:00+22ю14810 0.0 1020128
09:00+28ююз34580 0.0 1019582
12:00+32ююз35390 0.0 10191830
15:00+34ююз34330 0.0 10182905
18:00+30ююз37459 0.0 1017293
21:00+25ю23677 0.0 101753